Home   Weather   Tianjin   Past weeks

Flag for China Past Weather in Tianjin, Tianjin Municipality, China — Yesterday and Last 2 Weeks

46 °F


Feels Like: 44 °F
Forecast: 45 / 53 °F
Wind: 6 mph from East

Location: Tianjin / Zhangguizhu

Current Time: Oct 26, 2016 at 11:18:31 PM

Latest Report: Oct 26, 2016 at 10:30 PM

Visibility: 10 mi

Pressure: 30.36 "Hg

Humidity: 76%

Dew Point: 39 °F

Location of TianjinLocation

Past Weather in Tianjin — Graph


Tianjin Temperature Yesterday

Maximum temperature yesterday: 63 °F (at 2:00 PM)
Minimum temperature yesterday: 46 °F (at 2:00 AM)
Average temperature yesterday: 54 °F

High & Low Weather Summary for the Past Weeks

High77 °F (Oct 14, 1:00 PM)100% (Oct 18, 8:00 AM)30.36 "Hg (Oct 18, 8:00 AM)
Low41 °F (Oct 24, 5:00 AM)21% (Oct 23, 4:00 PM)29.92 "Hg (Oct 25, 4:00 AM)
Average58 °F70%30.13 "Hg
* Reported Oct 11 10:00 PM — Oct 26 10:00 PM, Tianjin, Weather by CustomWeather, © 2016

Note: Actual official high and low records may vary slightly from our data, if they occured in-between our weather recording intervals... More about our weather records


Tianjin Weather History for the Previous 24 Hours

Scroll right to see more
Time TempWeatherWind HumidityBarometerVisibility
10:00 PM
Wed, Oct 26
46 °FClear.6 mph76%30.36 "Hg10 mi
9:30 PM48 °FClear.6 mph71%30.36 "Hg10 mi
9:00 PM48 °FClear.8 mph71%30.36 "Hg10 mi
8:30 PM50 °FClear.6 mph67%30.36 "Hg10 mi
8:00 PM48 °FClear.6 mph71%30.36 "Hg10 mi
7:30 PM48 °FClear.3 mph71%30.33 "Hg10 mi
7:00 PM48 °FClear.3 mph71%30.33 "Hg10 mi
6:30 PM50 °FClear.3 mph67%30.33 "Hg10 mi
6:00 PM50 °FClear.6 mph62%30.30 "Hg10 mi
5:30 PM50 °FClear.3 mph62%30.30 "Hg10 mi
5:00 PM52 °FSunny.6 mph58%30.30 "Hg10 mi
4:30 PM54 °FSunny.8 mph51%30.30 "Hg10 mi
4:00 PM54 °FOvercast.10 mph51%30.27 "HgN/A
3:30 PM54 °FOvercast.13 mph47%30.27 "HgN/A
3:00 PM55 °FOvercast.15 mph47%30.27 "HgN/A
2:30 PM55 °FOvercast.15 mph47%30.27 "HgN/A
2:00 PM54 °FOvercast.17 mph51%30.27 "HgN/A
1:30 PM54 °FOvercast.17 mph51%30.27 "HgN/A
1:00 PM55 °FOvercast.17 mph47%30.27 "HgN/A
12:30 PM55 °FPartly sunny.17 mph47%30.27 "HgN/A
12:00 PM55 °FPartly sunny.20 mph47%30.27 "HgN/A
11:30 AM55 °FPartly sunny.20 mph55%30.30 "HgN/A
11:00 AM55 °FPartly sunny.22 mph55%30.30 "HgN/A
10:30 AM55 °FPartly sunny.24 mph55%30.27 "HgN/A
10:00 AM57 °FPartly sunny.17 mph59%30.27 "HgN/A
9:30 AM55 °FPartly sunny.15 mph72%30.27 "Hg4 mi
9:00 AM55 °FFog.13 mph77%30.24 "Hg2 mi
8:30 AM55 °FFog.13 mph82%30.21 "Hg1 mi
8:00 AM54 °FFog.8 mph88%30.18 "Hg1 mi
7:30 AM54 °FFog.6 mph88%30.15 "Hg1 mi
7:00 AM52 °FFog.6 mph94%30.12 "Hg1 mi
6:30 AM52 °FFog.6 mph94%30.12 "Hg1 mi
6:00 AM50 °FFog.1 mph94%30.09 "Hg1 mi
5:30 AM50 °FFog.1 mph94%30.09 "Hg1 mi
5:00 AM52 °FFog.1 mph88%30.09 "Hg1 mi
4:30 AM50 °FFog.1 mph94%30.09 "Hg1 mi
4:00 AM50 °FFog.1 mph94%30.09 "Hg1 mi
3:30 AM50 °FFog.1 mph94%30.09 "Hg1 mi
3:00 AM50 °FFog.3 mph94%30.09 "Hg1 mi
2:30 AM48 °FFog.3 mph94%30.07 "Hg1 mi
2:00 AM50 °FFog.1 mph94%30.07 "Hg1 mi
1:30 AM52 °FFog.3 mph88%30.07 "Hg1 mi
1:00 AM54 °FFog.3 mph88%30.07 "Hg1 mi
12:30 AM54 °FFog.3 mph88%30.07 "Hg2 mi
12:00 AM55 °FFog.3 mph82%30.07 "Hg2 mi
11:30 PM
Tue, Oct 25
55 °FFog.6 mph82%30.07 "Hg2 mi
11:00 PM55 °FFog.3 mph82%30.07 "Hg2 mi
Weather by CustomWeather, © 2016

See weather overviewHow to use our weather pages